Regional Weather Roundup
Issued by NWS

Home | Current Version | Previous Version | Graphics & Text | Print | Product List | Glossary On
Versions: 1 2 3 4 5 6 7 8 9 10 11 12 13 14 15 16 17 18 19 20 21 22 23 24 25 26 27 28 29 30 31 32 33 34 35 36 37 38 39 40 41 42 43 44 45 46 47 48 49 50
000
ASUS43 KLSX 251807
RWRMO

WEATHER SUMMARY FOR MISSOURI
NATIONAL WEATHER SERVICE SPRINGFIELD MO
100 PM CDT SAT APR 25 2015

NOTE: "FAIR" INDICATES FEW OR NO CLOUDS BELOW 12,000 FEET WITH NO
       SIGNIFICANT WEATHER AND/OR OBSTRUCTIONS TO VISIBILITY.
       CURRENT SKY AND/OR WEATHER CONDITIONS ARE NOT AVAILABLE FOR
       CHILLICOTHE AND FARMINGTON.

MOZ001>031-035>038-043-044-053-054-251900-
...NORTHERN AND WESTERN MISSOURI...

CITY           SKY/WX    TMP DP  RH WIND       PRES   REMARKS
KANSAS CTY INT LGT RAIN  58  57  97 NW6       29.51R FOG
6HR MIN TEMP:  55; 6HR MAX TEMP:  61; 6HR PCP:  0.43;

KANSAS C DTWN  CLOUDY    62  58  86 CALM      29.50R
6HR MIN TEMP:  57; 6HR MAX TEMP:  63; 6HR PCP:  0.25;

LEE`S SUMMIT   CLOUDY    61  57  87 W6        29.50R
6HR MIN TEMP:  57; 6HR MAX TEMP:  63; 6HR PCP:  0.09;

ST JOSEPH      CLOUDY    56  53  90 NE16      29.55R
6HR MIN TEMP:  56; 6HR MAX TEMP:  60; 6HR PCP: TRACE;

CHILLICOTHE      N/A     55  53  93 N9        29.53R
6HR MIN TEMP:  55; 6HR MAX TEMP:  58; 6HR PCP:  0.06;

KIRKSVILLE     RAIN      53  53 100 E9        29.53S FOG
6HR MIN TEMP:  51; 6HR MAX TEMP:  53; 6HR PCP:  0.19;


$$
MOZ066>068-077>081-088>096-101>105-251900-
...SOUTHWEST MISSOURI...

CITY           SKY/WX    TMP DP  RH WIND       PRES   REMARKS
SPRINGFIELD    SUNNY     71  53  52 W14G25    29.53F
6HR MIN TEMP:  58; 6HR MAX TEMP:  71;

JOPLIN         SUNNY     73  53  49 W20G30    29.56S
6HR MIN TEMP:  62; 6HR MAX TEMP:  73;


$$
MOZ032>034-039>042-045>050-055>058-069>072-251900-
...CENTRAL MISSOURI...

CITY           SKY/WX    TMP DP  RH WIND       PRES   REMARKS
COLUMBIA       RAIN      63  60  90 SW7       29.46S FOG
6HR MIN TEMP:  57; 6HR MAX TEMP:  67; 6HR PCP:  0.07;

JEFFERSON CITY CLOUDY    68  58  70 SW13G22   29.45F
6HR MIN TEMP:  58; 6HR MAX TEMP:  69; 6HR PCP:  0.07;

ROLLA          CLOUDY    70  54  56 W16G24    29.45F
6HR MIN TEMP:  56; 6HR MAX TEMP:  73; 6HR PCP: TRACE;

SEDALIA        PTSUNNY   68  52  56 W15G25    29.48R
6HR MIN TEMP:  61; 6HR MAX TEMP:  72; 6HR PCP:  0.01;

WHITEMAN AFB   MOSUNNY   64  59  86 W10       29.47S
WARRENSBURG    LGT RAIN  63  55  77 W14G21    29.49R
OSAGE BEACH    MOSUNNY   73  52  46 W14G25    29.47F

$$
MOZ051-052-059>065-251900-
...EAST CENTRAL MISSOURI...

CITY           SKY/WX    TMP DP  RH WIND       PRES   REMARKS
ST LOUIS INTL  PTSUNNY   70  57  63 CALM      29.48F
6HR MIN TEMP:  56; 6HR MAX TEMP:  71; 6HR PCP: TRACE;

SPIRIT OF STL  LGT RAIN  66  58  75 S6        29.47F
6HR MIN TEMP:  55; 6HR MAX TEMP:  68; 6HR PCP:  0.01;

ST CHARLES     PTSUNNY   67  60  78 E8        29.46F
6HR MIN TEMP:  55; 6HR MAX TEMP:  67;


$$
MOZ072>076-082>087-097>100-106>115-251900-
...SOUTH CENTRAL AND SOUTHEAST MISSOURI...

CITY           SKY/WX    TMP DP  RH WIND       PRES   REMARKS
CAPE GIRARDEAU PTSUNNY   72  61  68 SW21      29.50F
6HR MIN TEMP:  58; 6HR MAX TEMP:  72;

FARMINGTON     PTSUNNY   72  59  64 SW18      29.52F
6HR MIN TEMP:  55; 6HR MAX TEMP:  72;

POPLAR BLUFF   MOSUNNY   73  62  68 SW16      29.50F
6HR MIN TEMP:  58; 6HR MAX TEMP:  73;

WEST PLAINS    MOSUNNY   76  49  38 W20G31    29.51F
6HR MIN TEMP:  59; 6HR MAX TEMP:  77;


$$



USA.gov is the U.S. government's official web portal to all federal, state and local government web resources and services.